Regional Weather Roundup
Issued by NWS Newport/Morehead, NC

Current Version | Previous Version | Graphics & Text | Print | Product List | Glossary Off
Versions: 1 2 3 4 5 6 7 8 9 10 11 12 13 14 15 16 17 18 19 20 21 22 23 24 25 26 27 28 29 30 31 32 33 34 35 36 37 38 39 40 41 42 43 44 45 46 47 48 49 50

000
ASUS42 KMHX 221725
RWRMHX
WEATHER ROUNDUP FOR EASTERN NORTH CAROLINA
NATIONAL WEATHER SERVICE NEWPORT/MOREHEAD CITY NC
100 PM EDT FRI MAY 22 2015

NOTE: "FAIR" INDICATES FEW OR NO CLOUDS BELOW 12,000 FEET
WITH NO SIGNIFICANT WEATHER AND/OR OBSTRUCTIONS TO VISIBILITY

NCZ015>017-031-032-045>047-102-103-221800-
NORTH COAST

CITY           SKY/WX    TMP DP  RH WIND       PRES   REMARKS
EDENTON        SUNNY     68  47  45 NE6       30.17R
ELIZABETH CITY SUNNY     68  47  46 N8        30.15S
KITTY HAWK     SUNNY     66  48  51 NE9       30.15S
MANTEO         SUNNY     64  50  60 N9        30.16F

$$

NCZ045>047-081-094-103-104-221800-
CENTRAL COAST

CITY           SKY/WX    TMP DP  RH WIND       PRES   REMARKS
FRISCO         MOSUNNY   67  50  54 MISG      30.17R
SWANQUARTER      N/A     70 N/A N/A N9        30.12S

$$

NCZ095-097-098-100-101-221800-
SOUTHERN COAST

CITY           SKY/WX    TMP DP  RH WIND       PRES   REMARKS
BEAUFORT       SUNNY     70  53  54 VRB6      30.16F
CEDAR ISLAND     N/A     66 N/A N/A NW3G12    30.21S
JACKSONVILLE   MOSUNNY   69  51  52 MISG      30.17S
PINEY ISLAND   MOSUNNY  N/A N/A N/A N12       30.17S
WILMINGTON     PTSUNNY   71  54  54 CALM      30.17S


$$

NCZ011>013-027>030-043-044-078>080-089-090>093-098-221800-
COASTAL PLAIN

CITY           SKY/WX    TMP DP  RH WIND       PRES   REMARKS
AHOSKIE        SUNNY     67  42  40 N5        30.17S
CLINTON        MOSUNNY   69  51  51 NW6       30.19S
ELIZABETHTOWN  MOSUNNY   70  51  49 NW3       30.18S
GOLDSBORO      MOSUNNY   69  47  45 VRB5      30.16S
GREENVILLE     SUNNY     68  45  42 N8        30.19S
HAVELOCK       MOSUNNY   70  52  52 N10       30.18S
KENANSVILLE    SUNNY     68  47  47 CALM      30.19S
KINSTON        MOSUNNY   68  46  45 CALM      30.19S
NEW BERN       PTSUNNY   70  50  49 MISG      30.18F
RICHLANDS      MOSUNNY   70  48  46 W3        30.18S
ROCKY MOUNT    SUNNY     69  43  38 VRB7      30.18F
WASHINGTON     SUNNY    N/A N/A N/A NW6       30.18S
WHITEVILLE     MOSUNNY   70  52  52 CALM      30.18S

$$

AMZ130-135-150-152-154-156-158-170-250-252-270-ANZ085-086-088-633-658-670-221800-
MARINE OBSERVATIONS

STATION/POSITION TIME  TEMP    WIND        PRES    WAVE   SWELL
                       AIR SEA DIR/SP/G            HT/PER HT/PER
                 (UTC) (F)     (DEG/KT/KT) (MB)    (FT/S) (FT/S)
CHESAPEAKE LIGHT 1700   63     290/ 10/ 11 1021.4
64 E VA BEACH    1650   60 60  300/ 12/ 14 1020.1    5/ 7   3/ 7
DUCK             1700   62 67   10/  9/ 11 1020.3
2 E DUCK         1611      64                N/A     4/ 6
OREGON INLET     1700   63 68  360/ 10/ 16 1021.4
13E OREGON INLT  1700      62                N/A     5/ 8
HATTERAS CG      1700   64 71   10/ 10/ 13 1020.9
DIAMOND BUOY     1650   62 77   10/ 14/ 16 1021.2    5/ 7   3/ 7
CAPE LOOKOUT     1700   67      20/  9/ 10 1021.2
BEAUFORT LAB     1700   67 73  360/  9/ 10 1020.7
27 SE WRIGHTSVLE 1700   63 77   30/ 10/ 12   N/A
5 SE WRIGHTSVLE  1608   65 76   40/ 10/ 16 1021.7
225 S CAPE HAT   1650   73 75   40/ 17/ 19 1018.9    4/ 6   2/10
41 SE CHARLESTON 1650   69 76   30/ 19/ 25 1020.1    6/ 7   2/14

$$


USA.gov is the U.S. government's official web portal to all federal, state and local government web resources and services.